User: anonymous   Login
Location: Nairn
(57.5833°N, 3.8667°W)
Time: 03:51:52
(UTC+00:00)
Language:

deb Explorer IX - Orbit

View from above orbital plane
View from above orbital plane
View from above satellite
View from above satellite

Ground track
Ground track

The orbit data is extracted from the following two-line orbital elements,

1 00085U 61004C   21138.96954175  .00000776  00000-0  17987-3 0  9990
2 00085  38.7743 107.7997 0387675 216.8049 140.5493 14.21679302978840
Epoch (UTC): 18 May 2021 23:16:08
Eccentricity: 0.0387675
inclination: 38.7743°
perigee height: 540 km
apogee height: 1099 km
right ascension of ascending node: 107.7997°
argument of perigee: 216.8049°
revolutions per day: 14.21679302
mean anomaly at epoch: 140.5493°
orbit number at epoch: 97884

The dashed part of the orbit path shows where the satellite is in the earth's shadow,  

DLR